When you browse on this site, cookies collect data to enhance your experience and personalize the content and advertising you see.
Visit our Privacy Policy to learn more. By continuing to use the site, you agree to this use of cookies and data.
  • Em Portugal
  • Lista de países
  • Para 7 dias
  • Temperatura da água
  • Mapas de satélite
  • Mapa do tempo
  • Widgets de tempo
  • user-avatar
    Iniciar Sessão

    Previsão horária em Maan

    Hoje, 22 Janeiro, Terça-feira

    Tempo Temperatura Precipitação Vento Pressão Humidade
    00:00 +8°C° 0 mm 1 m/s 635 mmHg 44%
    01:00 +7°C° 0 mm 1 m/s 634 mmHg 46%
    02:00 +7°C° 0 mm 2 m/s 634 mmHg 45%
    03:00 +6°C° 0 mm 2 m/s 634 mmHg 47%
    04:00 +6°C° 0 mm 2 m/s 634 mmHg 50%
    05:00 +6°C° 0 mm 2 m/s 634 mmHg 52%
    06:00 +6°C° 0 mm 2 m/s 634 mmHg 50%
    07:00 +7°C° 0 mm 2 m/s 634 mmHg 48%
    08:00 +9°C° 0 mm 2 m/s 635 mmHg 42%
    09:00 +10°C° 0 mm 3 m/s 636 mmHg 38%
    10:00 +11°C° 0 mm 4 m/s 636 mmHg 35%
    11:00 +12°C° 0 mm 5 m/s 636 mmHg 31%
    12:00 +12°C° 0 mm 5 m/s 636 mmHg 29%
    13:00 +12°C° 0 mm 5 m/s 636 mmHg 26%
    14:00 +12°C° 0 mm 4 m/s 636 mmHg 28%
    15:00 +11°C° 0 mm 3 m/s 635 mmHg 28%
    16:00 +11°C° 0 mm 3 m/s 635 mmHg 28%
    17:00 +10°C° 0 mm 3 m/s 635 mmHg 28%
    18:00 +9°C° 0 mm 2 m/s 635 mmHg 31%
    19:00 +8°C° 0 mm 2 m/s 635 mmHg 34%
    20:00 +7°C° 0 mm 2 m/s 634 mmHg 37%
    21:00 +6°C° 0 mm 2 m/s 634 mmHg 40%
    22:00 +5°C° 0 mm 2 m/s 634 mmHg 42%
    23:00 +5°C° 0 mm 2 m/s 634 mmHg 45%

    Amanhã, 23 Janeiro, Quarta-feira

    Tempo Temperatura Precipitação Vento Pressão Humidade
    00:00 +5°C° 0 mm 1 m/s 634 mmHg 48%
    01:00 +5°C° 0 mm 1 m/s 634 mmHg 50%
    02:00 +4°C° 0 mm 1 m/s 634 mmHg 53%
    03:00 +4°C° 0 mm 1 m/s 633 mmHg 55%
    04:00 +3°C° 0 mm 1 m/s 633 mmHg 57%
    05:00 +2°C° 0 mm 0 m/s 633 mmHg 59%
    06:00 +4°C° 0 mm 1 m/s 633 mmHg 53%
    07:00 +5°C° 0 mm 1 m/s 634 mmHg 47%
    08:00 +6°C° 0 mm 1 m/s 634 mmHg 41%
    09:00 +7°C° 0 mm 2 m/s 635 mmHg 35%
    10:00 +8°C° 0 mm 2 m/s 635 mmHg 28%
    11:00 +10°C° 0 mm 2 m/s 636 mmHg 22%
    12:00 +12°C° 0 mm 2 m/s 636 mmHg 20%
    13:00 +13°C° 0 mm 2 m/s 635 mmHg 18%
    14:00 +14°C° 0 mm 2 m/s 635 mmHg 16%
    15:00 +13°C° 0 mm 2 m/s 634 mmHg 17%
    16:00 +12°C° 0 mm 2 m/s 634 mmHg 17%
    17:00 +11°C° 0 mm 1 m/s 634 mmHg 18%
    18:00 +10°C° 0 mm 2 m/s 634 mmHg 20%
    19:00 +9°C° 0 mm 2 m/s 634 mmHg 21%
    20:00 +9°C° 0 mm 2 m/s 633 mmHg 22%
    21:00 +8°C° 0 mm 2 m/s 633 mmHg 24%
    22:00 +8°C° 0 mm 2 m/s 633 mmHg 25%
    23:00 +7°C° 0 mm 2 m/s 633 mmHg 26%

    Depois de amanhã, 24 Janeiro, Quinta-feira

    Tempo Temperatura Precipitação Vento Pressão Humidade
    00:00 +7°C° 0 mm 2 m/s 633 mmHg 25%
    01:00 +7°C° 0 mm 2 m/s 633 mmHg 23%
    02:00 +7°C° 0 mm 2 m/s 633 mmHg 21%
    03:00 +7°C° 0 mm 2 m/s 632 mmHg 20%
    04:00 +7°C° 0 mm 2 m/s 632 mmHg 18%
    05:00 +7°C° 0 mm 2 m/s 632 mmHg 16%
    06:00 +8°C° 0 mm 3 m/s 633 mmHg 15%
    07:00 +8°C° 0 mm 3 m/s 633 mmHg 14%
    08:00 +9°C° 0 mm 3 m/s 634 mmHg 13%
    09:00 +12°C° 0 mm 4 m/s 634 mmHg 12%
    10:00 +14°C° 0 mm 4 m/s 635 mmHg 11%
    11:00 +16°C° 0 mm 5 m/s 635 mmHg 10%
    12:00 +17°C° 0 mm 6 m/s 635 mmHg 11%
    13:00 +17°C° 0 mm 7 m/s 635 mmHg 11%
    14:00 +18°C° 0 mm 7 m/s 634 mmHg 12%
    15:00 +16°C° 0 mm 7 m/s 634 mmHg 15%
    16:00 +15°C° 0 mm 6 m/s 634 mmHg 19%
    17:00 +14°C° 0 mm 5 m/s 633 mmHg 23%
    18:00 +13°C° 0 mm 5 m/s 633 mmHg 26%
    19:00 +11°C° 0 mm 4 m/s 634 mmHg 30%
    20:00 +10°C° 0 mm 4 m/s 634 mmHg 33%
    21:00 +9°C° 0 mm 3 m/s 634 mmHg 38%
    22:00 +8°C° 0 mm 3 m/s 634 mmHg 42%
    23:00 +7°C° 0 mm 2 m/s 634 mmHg 47%

    25 Janeiro, Sexta-feira

    Tempo Temperatura Precipitação Vento Pressão Humidade
    00:00 +6°C° 0 mm 2 m/s 634 mmHg 48%
    01:00 +6°C° 0 mm 2 m/s 633 mmHg 48%
    02:00 +6°C° 0 mm 1 m/s 633 mmHg 49%
    03:00 +6°C° 0 mm 1 m/s 633 mmHg 50%
    04:00 +6°C° 0 mm 1 m/s 633 mmHg 51%
    05:00 +5°C° 0 mm 1 m/s 632 mmHg 52%
    06:00 +6°C° 0 mm 1 m/s 633 mmHg 49%
    07:00 +7°C° 0 mm 2 m/s 634 mmHg 46%
    08:00 +8°C° 0 mm 2 m/s 634 mmHg 43%
    09:00 +9°C° 0 mm 2 m/s 635 mmHg 42%
    10:00 +12°C° 0 mm 2 m/s 635 mmHg 41%
    11:00 +14°C° 0 mm 2 m/s 636 mmHg 40%
    12:00 +14°C° 0 mm 4 m/s 635 mmHg 39%
    13:00 +15°C° 0 mm 6 m/s 635 mmHg 39%
    14:00 +16°C° 0 mm 7 m/s 635 mmHg 38%
    15:00 +15°C° 0 mm 6 m/s 635 mmHg 45%
    16:00 +15°C° 0 mm 5 m/s 634 mmHg 51%
    17:00 +14°C° 0 mm 4 m/s 634 mmHg 58%
    18:00 +12°C° 0 mm 3 m/s 634 mmHg 60%
    19:00 +12°C° 0 mm 2 m/s 634 mmHg 62%
    20:00 +10°C° 0 mm 2 m/s 634 mmHg 64%
    21:00 +10°C° 0 mm 2 m/s 634 mmHg 63%
    22:00 +10°C° 0 mm 2 m/s 634 mmHg 63%
    23:00 +9°C° 0 mm 2 m/s 633 mmHg 62%

    26 Janeiro, Sábado

    Tempo Temperatura Precipitação Vento Pressão Humidade
    00:00 +9°C° 0 mm 2 m/s 633 mmHg 58%
    01:00 +9°C° 0 mm 2 m/s 633 mmHg 54%
    02:00 +9°C° 0 mm 2 m/s 632 mmHg 51%
    03:00 +8°C° 0 mm 2 m/s 632 mmHg 51%
    04:00 +8°C° 0 mm 2 m/s 632 mmHg 52%
    05:00 +9°C° 0 mm 1 m/s 632 mmHg 52%
    06:00 +9°C° 0 mm 2 m/s 632 mmHg 53%
    07:00 +9°C° 0 mm 2 m/s 633 mmHg 54%
    08:00 +10°C° 0 mm 2 m/s 634 mmHg 55%
    09:00 +12°C° 0 mm 3 m/s 634 mmHg 55%
    10:00 +13°C° 0 mm 4 m/s 635 mmHg 55%
    11:00 +15°C° 0 mm 5 m/s 635 mmHg 55%
    12:00 +15°C° 0 mm 6 m/s 635 mmHg 51%
    13:00 +16°C° 0 mm 6 m/s 635 mmHg 47%
    14:00 +16°C° 0 mm 6 m/s 634 mmHg 44%
    15:00 +15°C° 0 mm 6 m/s 634 mmHg 41%
    16:00 +15°C° 0 mm 5 m/s 634 mmHg 37%
    17:00 +14°C° 0 mm 5 m/s 634 mmHg 34%
    18:00 +12°C° 0 mm 4 m/s 634 mmHg 34%
    19:00 +12°C° 0 mm 2 m/s 634 mmHg 34%
    20:00 +10°C° 0 mm 1 m/s 633 mmHg 34%
    21:00 +10°C° 0 mm 1 m/s 633 mmHg 35%
    22:00 +9°C° 0 mm 1 m/s 633 mmHg 36%
    23:00 +9°C° 0 mm 1 m/s 633 mmHg 38%

    27 Janeiro, Domingo

    Tempo Temperatura Precipitação Vento Pressão Humidade
    00:00 +8°C° 0 mm 1 m/s 633 mmHg 41%
    01:00 +8°C° 0 mm 1 m/s 633 mmHg 44%
    02:00 +8°C° 0 mm 1 m/s 632 mmHg 47%
    03:00 +7°C° 0 mm 1 m/s 632 mmHg 51%
    04:00 +6°C° 0 mm 0 m/s 632 mmHg 54%
    05:00 +5°C° 0 mm 0 m/s 632 mmHg 58%
    06:00 +6°C° 0 mm 0 m/s 632 mmHg 56%
    07:00 +7°C° 0 mm 0 m/s 633 mmHg 54%
    08:00 +8°C° 0 mm 0 m/s 634 mmHg 52%
    09:00 +10°C° 0 mm 0 m/s 634 mmHg 47%
    10:00 +13°C° 0 mm 1 m/s 635 mmHg 43%
    11:00 +14°C° 0 mm 1 m/s 635 mmHg 38%
    12:00 +15°C° 0 mm 2 m/s 635 mmHg 35%
    13:00 +16°C° 0 mm 2 m/s 634 mmHg 32%
    14:00 +17°C° 0 mm 3 m/s 634 mmHg 29%
    15:00 +16°C° 0 mm 3 m/s 634 mmHg 28%
    16:00 +15°C° 0 mm 2 m/s 633 mmHg 27%
    17:00 +14°C° 0 mm 1 m/s 633 mmHg 26%
    18:00 +14°C° 0 mm 1 m/s 633 mmHg 26%
    19:00 +13°C° 0 mm 1 m/s 633 mmHg 27%
    20:00 +12°C° 0 mm 1 m/s 632 mmHg 27%
    21:00 +12°C° 0 mm 1 m/s 632 mmHg 27%
    22:00 +11°C° 0 mm 1 m/s 632 mmHg 28%
    23:00 +10°C° 0 mm 1 m/s 632 mmHg 28%
    Mostrar mais